Location: Akdamlar
(36.8729°N, 30.5187°E)
Time: 17:10:20
(UTC+00:00)

Cosmos 1025 Rocket - Pass Details

Date: 18 September 2020
Orbit: 595 x 617 km, 82.5° (Epoch: 27 October)

Event Time Altitude Azimuth Distance (km) Brightness Sun altitude
Rises 17:11:48 0° 3° (N) 2,883 6.6 -14.9°
Reaches altitude 10° 17:14:12 10° 12° (NNE) 1,977 5.7 -15.4°
Maximum altitude 17:18:12 34° 78° (ENE) 1,009 3.7 -16.2°
Enters shadow 17:19:13 30° 107° (ESE) 1,097 3.7 -16.4°
